Time,TemperatureF,DewpointF,PressureIn,WindDirection,WindDirectionDegrees,WindSpeedMPH,WindSpeedGustMPH,Humidity,HourlyPrecipIn,Conditions,Clouds,dailyrainin,SolarRadiationWatts/m^2,SoftwareType,DateUTC
2013-05-16 00:08:00,58.4,55.0,30.16,SE,142,0.0,4.0,88,0.00,,,0.00,0,weatherlink.com 1.10,2013-05-16 07:08:00,
2013-05-16 00:23:00,58.5,55.0,30.16,SE,125,0.0,4.0,88,0.00,,,0.00,0,weatherlink.com 1.10,2013-05-16 07:23:00,
2013-05-16 00:38:00,58.6,55.0,30.15,SE,132,2.0,4.0,87,0.00,,,0.00,0,weatherlink.com 1.10,2013-05-16 07:38:00,
2013-05-16 00:54:00,58.6,55.0,30.15,SSE,153,0.0,3.0,87,0.00,,,0.00,0,weatherlink.com 1.10,2013-05-16 07:54:00,
2013-05-16 01:09:00,58.6,55.0,30.15,SE,140,0.0,3.0,87,0.00,,,0.00,0,weatherlink.com 1.10,2013-05-16 08:09:00,
2013-05-16 01:28:00,58.7,55.0,30.14,SE,144,0.0,3.0,87,0.00,,,0.00,0,weatherlink.com 1.10,2013-05-16 08:28:00,
2013-05-16 01:39:00,58.7,55.0,30.14,SE,140,0.0,3.0,86,0.00,,,0.00,0,weatherlink.com 1.10,2013-05-16 08:39:00,
2013-05-16 01:54:00,58.7,55.0,30.14,South,179,0.0,5.0,86,0.00,,,0.00,0,weatherlink.com 1.10,2013-05-16 08:54:00,
2013-05-16 02:09:00,58.8,55.0,30.13,SSE,150,0.0,3.0,86,0.00,,,0.00,0,weatherlink.com 1.10,2013-05-16 09:09:00,
2013-05-16 02:24:00,58.7,55.0,30.13,SE,126,0.0,3.0,86,0.00,,,0.00,0,weatherlink.com 1.10,2013-05-16 09:24:00,
2013-05-16 02:39:00,58.7,55.0,30.14,SE,144,0.0,1.0,86,0.00,,,0.00,0,weatherlink.com 1.10,2013-05-16 09:39:00,
2013-05-16 02:54:00,58.8,55.0,30.13,SE,142,0.0,2.0,86,0.00,,,0.00,0,weatherlink.com 1.10,2013-05-16 09:54:00,
2013-05-16 03:09:00,58.8,54.0,30.13,SSE,147,0.0,5.0,85,0.00,,,0.00,0,weatherlink.com 1.10,2013-05-16 10:09:00,
2013-05-16 03:24:00,58.9,54.0,30.13,SE,143,1.0,4.0,85,0.00,,,0.00,0,weatherlink.com 1.10,2013-05-16 10:24:00,
2013-05-16 03:39:00,58.9,54.0,30.13,SE,146,0.0,3.0,85,0.00,,,0.00,0,weatherlink.com 1.10,2013-05-16 10:39:00,
2013-05-16 03:54:00,58.9,54.0,30.13,SE,140,1.0,7.0,84,0.00,,,0.00,0,weatherlink.com 1.10,2013-05-16 10:54:00,
2013-05-16 04:09:00,58.9,54.0,30.13,ESE,114,1.0,4.0,84,0.00,,,0.00,0,weatherlink.com 1.10,2013-05-16 11:09:00,
2013-05-16 04:24:00,58.8,54.0,30.13,ESE,110,0.0,3.0,84,0.00,,,0.00,0,weatherlink.com 1.10,2013-05-16 11:24:00,
2013-05-16 04:39:00,58.7,54.0,30.13,East,97,1.0,1.0,84,0.00,,,0.00,0,weatherlink.com 1.10,2013-05-16 11:39:00,
2013-05-16 04:54:00,58.7,54.0,30.12,SE,135,1.0,3.0,84,0.00,,,0.00,0,weatherlink.com 1.10,2013-05-16 11:54:00,
2013-05-16 05:09:00,58.7,54.0,30.12,SE,143,0.0,3.0,84,0.00,,,0.00,0,weatherlink.com 1.10,2013-05-16 12:09:00,
2013-05-16 05:24:00,58.7,54.0,30.11,SE,138,0.0,3.0,84,0.00,,,0.00,0,weatherlink.com 1.10,2013-05-16 12:24:00,
2013-05-16 05:39:00,58.7,54.0,30.12,SE,126,0.0,3.0,84,0.00,,,0.00,0,weatherlink.com 1.10,2013-05-16 12:39:00,
2013-05-16 05:54:00,58.6,54.0,30.13,SSE,150,0.0,2.0,84,0.00,,,0.00,0,weatherlink.com 1.10,2013-05-16 12:54:00,
2013-05-16 06:09:00,58.7,54.0,30.14,SSE,150,0.0,1.0,84,0.00,,,0.00,0,weatherlink.com 1.10,2013-05-16 13:09:00,
2013-05-16 06:24:00,58.7,54.0,30.14,SSE,150,0.0,1.0,83,0.00,,,0.00,9,weatherlink.com 1.10,2013-05-16 13:24:00,
2013-05-16 06:39:00,58.7,54.0,30.14,South,185,0.0,1.0,83,0.00,,,0.00,14,weatherlink.com 1.10,2013-05-16 13:39:00,
2013-05-16 06:54:00,58.9,54.0,30.14,South,185,0.0,1.0,83,0.00,,,0.00,21,weatherlink.com 1.10,2013-05-16 13:54:00,
2013-05-16 07:09:00,59.1,54.0,30.14,South,185,0.0,0.0,83,0.00,,,0.00,28,weatherlink.com 1.10,2013-05-16 14:09:00,
2013-05-16 07:24:00,59.3,54.0,30.14,ESE,122,0.0,2.0,83,0.00,,,0.00,39,weatherlink.com 1.10,2013-05-16 14:24:00,
2013-05-16 07:39:00,59.1,54.0,30.14,SE,140,0.0,1.0,82,0.00,,,0.00,51,weatherlink.com 1.10,2013-05-16 14:39:00,
2013-05-16 07:54:00,59.4,54.0,30.14,North,355,0.0,2.0,82,0.00,,,0.00,65,weatherlink.com 1.10,2013-05-16 14:54:00,
2013-05-16 08:09:00,59.8,54.0,30.15,North,355,0.0,1.0,82,0.00,,,0.00,76,weatherlink.com 1.10,2013-05-16 15:09:00,
2013-05-16 08:24:00,60.1,54.0,30.15,SSE,153,0.0,3.0,81,0.00,,,0.00,102,weatherlink.com 1.10,2013-05-16 15:24:00,
2013-05-16 08:39:00,60.4,55.0,30.15,SE,143,0.0,3.0,81,0.00,,,0.00,137,weatherlink.com 1.10,2013-05-16 15:39:00,
2013-05-16 08:54:00,61.1,55.0,30.15,SE,134,1.0,1.0,79,0.00,,,0.00,148,weatherlink.com 1.10,2013-05-16 15:54:00,
2013-05-16 09:09:00,61.8,55.0,30.15,SE,146,3.0,4.0,78,0.00,,,0.00,223,weatherlink.com 1.10,2013-05-16 16:09:00,
2013-05-16 09:24:00,62.7,55.0,30.15,ESE,115,0.0,5.0,76,0.00,,,0.00,283,weatherlink.com 1.10,2013-05-16 16:24:00,
2013-05-16 09:39:00,64.6,56.0,30.14,SE,142,2.0,5.0,73,0.00,,,0.00,958,weatherlink.com 1.10,2013-05-16 16:39:00,
2013-05-16 09:55:00,67.2,56.0,30.14,SW,224,1.0,5.0,68,0.00,,,0.00,838,weatherlink.com 1.10,2013-05-16 16:55:00,
2013-05-16 10:10:00,65.8,55.0,30.14,East,95,3.0,9.0,68,0.00,,,0.00,756,weatherlink.com 1.10,2013-05-16 17:10:00,
2013-05-16 10:25:00,67.4,56.0,30.14,SSE,153,1.0,6.0,67,0.00,,,0.00,253,weatherlink.com 1.10,2013-05-16 17:25:00,
2013-05-16 10:40:00,69.1,57.0,30.14,SE,132,2.0,5.0,65,0.00,,,0.00,928,weatherlink.com 1.10,2013-05-16 17:40:00,
2013-05-16 10:55:00,68.8,56.0,30.14,West,265,3.0,5.0,64,0.00,,,0.00,1000,weatherlink.com 1.10,2013-05-16 17:55:00,
2013-05-16 11:10:00,69.8,57.0,30.13,SE,130,3.0,7.0,65,0.00,,,0.00,946,weatherlink.com 1.10,2013-05-16 18:10:00,
2013-05-16 11:25:00,69.3,57.0,30.13,SSW,201,1.0,7.0,65,0.00,,,0.00,983,weatherlink.com 1.10,2013-05-16 18:25:00,
2013-05-16 11:40:00,69.1,58.0,30.13,SSE,157,1.0,7.0,67,0.00,,,0.00,977,weatherlink.com 1.10,2013-05-16 18:40:00,
2013-05-16 11:55:00,70.7,58.0,30.13,SSE,157,1.0,5.0,65,0.00,,,0.00,965,weatherlink.com 1.10,2013-05-16 18:55:00,
2013-05-16 12:10:00,70.7,58.0,30.12,South,182,2.0,6.0,65,0.00,,,0.00,990,weatherlink.com 1.10,2013-05-16 19:10:00,
2013-05-16 12:25:00,70.5,59.0,30.12,SSE,153,0.0,7.0,66,0.00,,,0.00,1023,weatherlink.com 1.10,2013-05-16 19:25:00,
2013-05-16 12:40:00,69.0,58.0,30.11,West,271,6.0,7.0,67,0.00,,,0.00,288,weatherlink.com 1.10,2013-05-16 19:40:00,
2013-05-16 12:55:00,70.2,59.0,30.11,South,182,0.0,6.0,67,0.00,,,0.00,1041,weatherlink.com 1.10,2013-05-16 19:55:00,
2013-05-16 13:10:00,68.8,57.0,30.11,West,271,2.0,8.0,67,0.00,,,0.00,664,weatherlink.com 1.10,2013-05-16 20:10:00,
2013-05-16 13:25:00,69.3,58.0,30.10,SSE,162,0.0,5.0,67,0.00,,,0.00,958,weatherlink.com 1.10,2013-05-16 20:25:00,
2013-05-16 13:40:00,70.3,59.0,30.10,SW,219,1.0,5.0,67,0.00,,,0.00,976,weatherlink.com 1.10,2013-05-16 20:40:00,
2013-05-16 13:55:00,70.0,58.0,30.10,West,259,2.0,7.0,66,0.00,,,0.00,926,weatherlink.com 1.10,2013-05-16 20:55:00,
2013-05-16 14:10:00,69.4,58.0,30.09,SE,142,2.0,6.0,67,0.00,,,0.00,904,weatherlink.com 1.10,2013-05-16 21:10:00,
2013-05-16 14:25:00,70.1,58.0,30.09,SSW,193,0.0,7.0,66,0.00,,,0.00,884,weatherlink.com 1.10,2013-05-16 21:25:00,
2013-05-16 14:40:00,70.1,59.0,30.08,SW,228,4.0,6.0,67,0.00,,,0.00,856,weatherlink.com 1.10,2013-05-16 21:40:00,
2013-05-16 14:55:00,70.7,59.0,30.07,SW,236,3.0,4.0,67,0.00,,,0.00,831,weatherlink.com 1.10,2013-05-16 21:55:00,
2013-05-16 15:10:00,70.7,58.0,30.07,South,179,3.0,7.0,65,0.00,,,0.00,807,weatherlink.com 1.10,2013-05-16 22:10:00,
2013-05-16 15:25:00,70.4,58.0,30.07,SSE,162,0.0,5.0,66,0.00,,,0.00,772,weatherlink.com 1.10,2013-05-16 22:25:00,
2013-05-16 15:40:00,70.5,58.0,30.06,SE,143,0.0,6.0,65,0.00,,,0.00,733,weatherlink.com 1.10,2013-05-16 22:40:00,
2013-05-16 15:55:00,70.5,58.0,30.06,South,172,0.0,6.0,65,0.00,,,0.00,694,weatherlink.com 1.10,2013-05-16 22:55:00,
2013-05-16 16:10:00,71.2,58.0,30.05,SSE,152,0.0,4.0,64,0.00,,,0.00,652,weatherlink.com 1.10,2013-05-16 23:10:00,
2013-05-16 17:10:00,69.0,58.0,30.06,SSW,194,2.0,5.0,67,0.00,,,0.00,462,weatherlink.com 1.10,2013-05-17 00:10:00,
2013-05-16 17:25:00,68.3,58.0,30.06,West,265,0.0,6.0,69,0.00,,,0.00,408,weatherlink.com 1.10,2013-05-17 00:25:00,
2013-05-16 17:40:00,67.7,58.0,30.06,SW,219,0.0,5.0,70,0.00,,,0.00,367,weatherlink.com 1.10,2013-05-17 00:40:00,
2013-05-16 17:55:00,67.4,58.0,30.06,SE,139,2.0,4.0,71,0.00,,,0.00,313,weatherlink.com 1.10,2013-05-17 00:55:00,
2013-05-16 18:10:00,67.3,58.0,30.06,SW,214,0.0,3.0,71,0.00,,,0.00,276,weatherlink.com 1.10,2013-05-17 01:10:00,
2013-05-16 18:25:00,65.7,56.0,30.06,SE,142,0.0,4.0,72,0.00,,,0.00,148,weatherlink.com 1.10,2013-05-17 01:25:00,
2013-05-16 18:40:00,65.2,57.0,30.06,SW,217,0.0,2.0,74,0.00,,,0.00,81,weatherlink.com 1.10,2013-05-17 01:40:00,
2013-05-16 18:55:00,64.2,56.0,30.06,SSW,206,0.0,2.0,75,0.00,,,0.00,25,weatherlink.com 1.10,2013-05-17 01:55:00,
2013-05-16 19:10:00,63.4,56.0,30.07,SE,145,0.0,4.0,77,0.00,,,0.00,9,weatherlink.com 1.10,2013-05-17 02:10:00,
2013-05-16 19:25:00,62.7,56.0,30.07,WSW,247,0.0,3.0,79,0.00,,,0.00,5,weatherlink.com 1.10,2013-05-17 02:25:00,
2013-05-16 19:40:00,62.2,56.0,30.07,SSW,208,0.0,4.0,80,0.00,,,0.00,0,weatherlink.com 1.10,2013-05-17 02:40:00,
2013-05-16 19:55:00,62.0,56.0,30.07,South,189,0.0,3.0,80,0.00,,,0.00,0,weatherlink.com 1.10,2013-05-17 02:55:00,
2013-05-16 20:10:00,62.0,56.0,30.07,SE,133,0.0,2.0,81,0.00,,,0.00,0,weatherlink.com 1.10,2013-05-17 03:10:00,
2013-05-16 20:25:00,61.9,56.0,30.08,SE,146,0.0,2.0,81,0.00,,,0.00,0,weatherlink.com 1.10,2013-05-17 03:25:00,
2013-05-16 20:40:00,61.7,56.0,30.08,SE,129,0.0,2.0,81,0.00,,,0.00,0,weatherlink.com 1.10,2013-05-17 03:40:00,
2013-05-16 20:55:00,61.5,56.0,30.08,SE,139,0.0,2.0,82,0.00,,,0.00,0,weatherlink.com 1.10,2013-05-17 03:55:00,
2013-05-16 21:10:00,61.5,56.0,30.09,South,184,0.0,1.0,82,0.00,,,0.00,0,weatherlink.com 1.10,2013-05-17 04:10:00,
2013-05-16 21:25:00,61.6,56.0,30.10,SSE,157,0.0,2.0,82,0.00,,,0.00,0,weatherlink.com 1.10,2013-05-17 04:25:00,
2013-05-16 21:40:00,61.7,56.0,30.10,South,171,0.0,2.0,82,0.00,,,0.00,0,weatherlink.com 1.10,2013-05-17 04:40:00,
2013-05-16 21:55:00,61.7,56.0,30.10,SE,142,0.0,2.0,82,0.00,,,0.00,0,weatherlink.com 1.10,2013-05-17 04:55:00,
2013-05-16 22:10:00,61.4,56.0,30.10,SE,146,0.0,2.0,83,0.00,,,0.00,0,weatherlink.com 1.10,2013-05-17 05:10:00,
2013-05-16 22:25:00,61.2,56.0,30.10,SE,146,0.0,0.0,83,0.00,,,0.00,0,weatherlink.com 1.10,2013-05-17 05:25:00,
2013-05-16 22:40:00,61.0,56.0,30.09,SE,146,0.0,3.0,82,0.00,,,0.00,0,weatherlink.com 1.10,2013-05-17 05:40:00,
2013-05-16 22:55:00,61.0,56.0,30.10,ESE,121,0.0,1.0,82,0.00,,,0.00,0,weatherlink.com 1.10,2013-05-17 05:55:00,
2013-05-16 23:10:00,61.1,56.0,30.10,ESE,121,0.0,1.0,82,0.00,,,0.00,0,weatherlink.com 1.10,2013-05-17 06:10:00,
2013-05-16 23:25:00,61.1,56.0,30.10,SE,126,0.0,2.0,83,0.00,,,0.00,0,weatherlink.com 1.10,2013-05-17 06:25:00,
2013-05-16 23:40:00,61.0,56.0,30.10,SSE,151,0.0,2.0,84,0.00,,,0.00,0,weatherlink.com 1.10,2013-05-17 06:40:00,
2013-05-16 23:55:00,60.8,56.0,30.10,SSE,152,0.0,1.0,84,0.00,,,0.00,0,weatherlink.com 1.10,2013-05-17 06:55:00,